CCA519 ZGGG-ZSWZ

Flight info

Callsign CCA519
Flight time N/A
Altitude 35100
Route LMN9 LMN G471 XEBUL DCT NUVGA DCT VETIB W155 TEBON A470 LJG B221 DST DCT
Aircraft A320/M-SDE3FGHIRWY/LB2

Departure

Time 2026-04-27 14:39
Airport Guangzhou Baiyun International Airport (ZGGG)

Arrival

Time N/A
Airport Wenzhou Longwan International Airport (ZSWZ)
Time Latitude Longitude Altitude Speed Heading
2026-04-27 14:27 23.39611 113.30584 53 ft 2 kts
2026-04-27 14:28 23.39595 113.30581 50 ft 2 kts 21°
2026-04-27 14:28 23.39580 113.30574 50 ft 2 kts 42°
2026-04-27 14:28 23.39569 113.30560 54 ft 2 kts 65°
2026-04-27 14:28 23.39564 113.30545 54 ft 1 kts 90°
2026-04-27 14:29 23.39563 113.30541 54 ft 0 kts 103°
2026-04-27 14:31 23.39561 113.30551 54 ft 3 kts 104°
2026-04-27 14:31 23.39553 113.30583 54 ft 6 kts 107°
2026-04-27 14:32 23.39539 113.30632 54 ft 8 kts 107°
2026-04-27 14:32 23.39520 113.30700 54 ft 12 kts 104°
2026-04-27 14:32 23.39568 113.30768 54 ft 14 kts 21°
2026-04-27 14:32 23.39672 113.30798 54 ft 16 kts 13°
2026-04-27 14:33 23.39790 113.30829 54 ft 18 kts 13°
2026-04-27 14:33 23.39920 113.30864 54 ft 20 kts 14°
2026-04-27 14:33 23.40064 113.30903 54 ft 22 kts 14°
2026-04-27 14:33 23.40219 113.30944 54 ft 24 kts 14°
2026-04-27 14:34 23.40368 113.30984 52 ft 14 kts 13°
2026-04-27 14:34 23.40403 113.31065 54 ft 10 kts 92°
2026-04-27 14:34 23.40450 113.31112 54 ft 11 kts 14°
2026-04-27 14:34 23.40534 113.31134 54 ft 14 kts 14°
2026-04-27 14:35 23.40635 113.31162 54 ft 16 kts 14°
2026-04-27 14:35 23.40756 113.31195 54 ft 19 kts 13°
2026-04-27 14:35 23.40890 113.31237 54 ft 19 kts 34°
2026-04-27 14:35 23.40901 113.31370 53 ft 20 kts 103°
2026-04-27 14:36 23.40867 113.31523 53 ft 22 kts 104°
2026-04-27 14:36 23.40792 113.31605 53 ft 16 kts 185°
2026-04-27 14:36 23.40677 113.31576 53 ft 18 kts 193°
2026-04-27 14:36 23.40548 113.31542 53 ft 20 kts 193°
2026-04-27 14:37 23.40408 113.31504 52 ft 21 kts 195°
2026-04-27 14:37 23.40303 113.31524 54 ft 15 kts 111°
2026-04-27 14:37 23.40285 113.31631 51 ft 13 kts 105°
2026-04-27 14:37 23.40209 113.31651 54 ft 13 kts 192°
2026-04-27 14:38 23.40116 113.31626 53 ft 16 kts 193°
2026-04-27 14:38 23.39930 113.31576 52 ft 50 kts 194°
2026-04-27 14:38 23.39384 113.31429 52 ft 109 kts 194°
2026-04-27 14:38 23.38484 113.31187 52 ft 154 kts 193°
2026-04-27 14:39 23.37383 113.30906 409 ft 164 kts 192°
2026-04-27 14:39 23.36264 113.30601 923 ft 168 kts 194°
2026-04-27 14:39 23.35128 113.30230 1571 ft 168 kts 195°
2026-04-27 14:39 23.34025 113.29878 2195 ft 171 kts 194°
2026-04-27 14:40 23.32816 113.29472 2498 ft 192 kts 196°
2026-04-27 14:40 23.31488 113.29015 2873 ft 205 kts 196°
2026-04-27 14:40 23.30098 113.28578 3456 ft 210 kts 191°
2026-04-27 14:40 23.28624 113.28450 3962 ft 222 kts 180°
2026-04-27 14:41 23.28093 113.28442 4093 ft 228 kts 181°